Weather History for Imperial, NE

Change the Weather History Date:

Tuesday, August 20, 2013

  Actual Average Record
Temperature  
Mean Temperature 80 °F 73 °F  
Max Temperature 100 °F 87 °F 105 °F (1898)
Min Temperature 60 °F 59 °F 47 °F (1908)
Degree Days  
Heating Degree Days 0 0  
Month to date heating degree days 0 0  
Since 1 June heating degree days 32 36  
Cooling Degree Days 15 8  
Month to date cooling degree days 169 202  
Year to date cooling degree days 790 786  
Since 1 June cooling degree days 722 742  
Growing Degree Days 30 (Base 50)    
Moisture  
Dew Point 59 °F    
Average Humidity 54    
Maximum Humidity 90    
Minimum Humidity 18    
Precipitation  
Precipitation 0.00 in 0.07 in 2.22 in (1965)
Sea Level Pressure  
Sea Level Pressure 29.86 in    
Wind  
Wind Speed 8 mph (South)    
Max Wind Speed 17 mph    
Max Gust Speed 24 mph    
Visibility 10 miles    
Events      
T = Trace of Precipitation, MM = Missing Value Source: NWS Daily Summary

Daily Weather History Graph

Daily Weather History Graph

Search for Another Location

Airport:

Trip Planner

Search our weather history database for the weather conditions in past years. The results will help you decide how hot, cold, wet, or windy it might be!

Date:

Astronomy

Aug. 20, 2013 Rise Set
Actual Time 6:02 AM MDT 7:36 PM MDT
Civil Twilight 5:33 AM MDT 8:05 PM MDT
Nautical Twilight 4:58 AM MDT 8:39 PM MDT
Astronomical Twilight 4:21 AM MDT 9:16 PM MDT
Moon 7:08 PM MDT (8/20) 5:34 AM MDT (8/20)
Length of Visible Light 14h 31m
Length of Day
13h 34m
Full, 100% of the Moon is Illuminated
Aug 20
Full
Aug 20
Full
Aug 28
Last Quarter
Sep 5
New
Sep 12
First Quarter

Hourly Weather History & Observations

Time (MDT) Temp. Heat Index Dew Point Humidity Pressure Visibility Wind Dir Wind Speed Gust Speed Precip Events Conditions
12:53 AM 69.1 °F - 62.1 °F 78% 29.88 in 10.0 mi South 3.5 mph - N/A   Clear
1:53 AM 66.0 °F - 61.0 °F 84% 29.88 in 10.0 mi Calm Calm - N/A   Clear
2:53 AM 64.0 °F - 61.0 °F 90% 29.88 in 9.0 mi South 3.5 mph - N/A   Clear
3:53 AM 62.1 °F - 59.0 °F 90% 29.87 in 9.0 mi South 3.5 mph - N/A   Clear
4:53 AM 62.1 °F - 59.0 °F 90% 29.86 in 8.0 mi South 4.6 mph - N/A   Clear
5:53 AM 60.1 °F - 57.9 °F 93% 29.88 in 9.0 mi SSE 3.5 mph - N/A   Clear
6:53 AM 64.9 °F - 61.0 °F 87% 29.89 in 9.0 mi South 3.5 mph - N/A   Clear
7:53 AM 72.0 °F - 63.0 °F 73% 29.89 in 10.0 mi South 4.6 mph - N/A   Clear
8:53 AM 77.0 °F - 63.0 °F 62% 29.90 in 10.0 mi Variable 5.8 mph - N/A   Clear
9:53 AM 81.0 °F 82.7 °F 64.9 °F 58% 29.90 in 10.0 mi South 8.1 mph - N/A   Clear
10:53 AM 88.0 °F 89.6 °F 64.9 °F 46% 29.89 in 10.0 mi South 8.1 mph - N/A   Clear
11:53 AM 91.9 °F 91.8 °F 61.0 °F 35% 29.88 in 10.0 mi South 12.7 mph - N/A   Clear
12:53 PM 96.1 °F 95.6 °F 59.0 °F 29% 29.85 in 10.0 mi South 10.4 mph 19.6 mph N/A   Clear
1:53 PM 98.1 °F 96.1 °F 54.0 °F 23% 29.85 in 10.0 mi South 11.5 mph 18.4 mph N/A   Clear
2:53 PM 99.0 °F - 52.0 °F 21% 29.83 in 10.0 mi South 12.7 mph 23.0 mph N/A   Clear
3:53 PM 99.0 °F - 48.9 °F 18% 29.81 in 10.0 mi South 11.5 mph 21.9 mph N/A   Clear
4:53 PM 97.0 °F - 50.0 °F 20% 29.81 in 10.0 mi South 11.5 mph 19.6 mph N/A   Clear
5:53 PM 93.9 °F - 52.0 °F 24% 29.82 in 10.0 mi South 10.4 mph 19.6 mph N/A   Clear
6:53 PM 88.0 °F 86.1 °F 55.0 °F 32% 29.83 in 10.0 mi South 6.9 mph - N/A   Clear
7:53 PM 81.0 °F 80.8 °F 55.9 °F 42% 29.85 in 10.0 mi SSE 8.1 mph - N/A   Clear
8:53 PM 81.0 °F 81.6 °F 60.1 °F 49% 29.86 in 10.0 mi SSE 11.5 mph - N/A   Clear
9:53 PM 80.1 °F 81.1 °F 61.0 °F 52% 29.87 in 10.0 mi South 10.4 mph - N/A   Clear
10:53 PM 77.0 °F - 61.0 °F 58% 29.86 in 10.0 mi South 10.4 mph - N/A   Clear
11:53 PM 75.9 °F - 61.0 °F 60% 29.86 in 10.0 mi South 10.4 mph - N/A   Clear